Flag for Kazakhstan Weather past 2 weeks in Almaty, Kazakhstan

Now
81 °F

Clear.


Feels Like: 79 °F
Forecast: 60 / 93 °F
Wind: 3 mph from North

Location: Almaty Airport

Current Time: Aug 22, 2014 at 11:04:53 AM

Latest Report: Aug 22, 2014 at 10:30 AM


Visibility: N/A

Pressure: 29.86 "Hg

Humidity: 23%

Dew point: 39 °F

Location of AlmatyLocation

Historic Weather in Almaty — Graph

°F

Almaty temperature yesterday

Maximum temperature yesterday: 90 °F (at 2:00 PM)
Minimum temperature yesterday: 55 °F (at 6:00 AM)
Average temperature yesterday: 74 °F

Past Weeks' High & Low Weather Summary

 TemperatureHumidityPressure
High99 °F (Aug 14, 2:30 PM)88% (Aug 16, 4:00 AM)30.15 "Hg (Aug 16, 4:00 AM)
Low50 °F (Aug 20, 6:00 AM)7% (Aug 13, 2:00 PM)29.62 "Hg (Aug 14, 2:30 PM)
Average73 °F38%29.89 "Hg
* Reported Aug 7 10:00 AM — Aug 22 10:00 AM, Almaty, Weather by CustomWeather, © 2014

Note: Actual official high and low records may vary slightly from our data, if they occured in-between our weather recording intervals... More about our weather records

Advertising

Almaty weather history for previous 24 hours

 ConditionsComfort  
Time TempWeatherWind HumidityBarometerVisibility
10:00 AM
Aug 22
79 °FClear.3 mph24%29.86 "HgN/A
9:30 AM77 °FClear.1 mph28%29.86 "HgN/A
9:00 AM73 °FClear.3 mph31%29.86 "HgN/A
8:30 AM72 °FClear.3 mph38%29.86 "HgN/A
8:00 AM70 °FClear.3 mph40%29.86 "HgN/A
7:30 AM66 °FClear.3 mph52%29.86 "HgN/A
7:00 AM64 °FClear.1 mph56%29.83 "HgN/A
6:30 AM61 °FPassing clouds.1 mph63%29.83 "HgN/A
6:00 AM61 °FPassing clouds.3 mph63%29.83 "HgN/A
5:30 AM61 °FPassing clouds.6 mph63%29.83 "HgN/A
5:00 AM61 °FPassing clouds.6 mph63%29.83 "HgN/A
4:30 AM61 °FPassing clouds.3 mph63%29.83 "HgN/A
4:00 AM61 °FPassing clouds.3 mph63%29.83 "HgN/A
3:30 AM63 °FPassing clouds.3 mph59%29.83 "HgN/A
3:00 AM63 °FPassing clouds.3 mph64%29.83 "HgN/A
2:30 AM64 °FPassing clouds.1 mph56%29.83 "HgN/A
2:00 AM66 °FPassing clouds.3 mph52%29.83 "HgN/A
1:30 AM66 °FPassing clouds.3 mph52%29.83 "HgN/A
1:00 AM66 °FPassing clouds.3 mph49%29.86 "HgN/A
12:30 AM68 °FPassing clouds.8 mph46%29.86 "HgN/A
12:00 AM66 °FPassing clouds.3 mph52%29.86 "HgN/A
11:30 PM
Aug 21
66 °FPassing clouds.6 mph52%29.86 "HgN/A
11:00 PM70 °FPassing clouds.3 mph46%29.89 "HgN/A
10:30 PM70 °FPassing clouds.6 mph46%29.86 "HgN/A
10:00 PM70 °FPassing clouds.3 mph46%29.89 "HgN/A
9:30 PM73 °FPassing clouds.3 mph41%29.89 "HgN/A
9:00 PM75 °FPassing clouds.6 mph36%29.89 "Hg3 mi
8:30 PM77 °FPassing clouds.6 mph39%29.89 "Hg2 mi
8:00 PM77 °FPassing clouds.6 mph39%29.89 "HgN/A
7:30 PM82 °FPassing clouds.3 mph30%29.89 "HgN/A
7:00 PM86 °FPassing clouds.6 mph25%29.89 "HgN/A
6:30 PM88 °FScattered clouds.8 mph22%29.89 "HgN/A
6:00 PM88 °FScattered clouds.8 mph21%29.89 "HgN/A
5:30 PM90 °FScattered clouds.10 mph20%29.89 "HgN/A
5:00 PM90 °FPassing clouds.10 mph20%29.89 "HgN/A
4:30 PM90 °FPassing clouds.13 mph20%29.89 "HgN/A
4:00 PM90 °FPassing clouds.13 mph20%29.89 "HgN/A
3:30 PM90 °FPassing clouds.13 mph18%29.89 "HgN/A
3:00 PM90 °FClear.13 mph16%29.92 "HgN/A
2:30 PM90 °FClear.13 mph20%29.92 "HgN/A
2:00 PM90 °FClear.15 mph18%29.92 "HgN/A
1:30 PM88 °FClear.13 mph19%29.92 "HgN/A
1:00 PM88 °FClear.10 mph22%29.95 "HgN/A
12:30 PM86 °FPassing clouds.8 mph22%29.95 "HgN/A
12:00 PM84 °FPassing clouds.6 mph25%29.95 "HgN/A
11:30 AM84 °FPassing clouds.6 mph25%29.95 "HgN/A
11:00 AM81 °FPassing clouds.3 mph26%29.98 "HgN/A
Weather by CustomWeather, © 2014

See weather overviewHow to use our weather pages